Find Lyra-1

NORAD ID: 62664 Int'l Des: 2025-009 Owner: ECHOAU Country: AU operational
LEOCIRCULARRETROGRADESSO

現在のビュー

3D地球を読み込み中...

About Lyra-1

Lyra-1 (NORAD 62664) is a satellite launched Jan 14, 2025 by ECHOAU of AU. It operates in LEO, CIRCULAR, RETROGRADE, SSO orbit with a mass of 74.00 kg.

次回通過

Passes for default location (London). Set your location on the main map for personalized predictions.

高度履歴

Loading altitude history...

軌道要素

1 62664U 25009BH 26195.14222742 .00006080 00000-0 29066-3 0 9997
2 62664 97.3980 269.1668 0010344 101.1209 259.1189 15.19319349 82512
Epoch: Jul 14, 2026 • Age: 6 hours

現在のステータス

高度 531.8 km
遠地点 / 近地点 N/A
速度 7.59 km/s
衛星直下点 -46.29°S, 158.06°W
打ち上げ日 Jan 14, 2025
運用期間 1.4 years
タイプ other

技術仕様

分類 Payload
質量 74.00 kg
乾燥質量 74.00 kg
総質量 74.00 kg
長さ 0.60 m
直径 0.50 m
スパン 2.00 m
形状 Box
製造者 ADIG
バスタイプ Corvus XL
フェーズステータス In Orbit
所有者/国 ECHOAU/AU

Most Searched